Weather History for Khon Kaen, Thailand

Change the Weather History Date:

Monday, February 18, 2013

  Actual Average Record
Temperature  
Mean Temperature 86 °F -  
Max Temperature 98 °F 93 °F - ()
Min Temperature 73 °F 70 °F - ()
Cooling Degree Days 20    
Growing Degree Days 36 (Base 50)    
Moisture  
Dew Point 67 °F    
Average Humidity 52    
Maximum Humidity 83    
Minimum Humidity 24    
Precipitation  
Precipitation 0.00 in 0.04 in - ()
Sea Level Pressure  
Sea Level Pressure 29.77 in    
Wind  
Wind Speed 2 mph ()    
Max Wind Speed 7 mph    
Max Gust Speed -    
Visibility 5.1 miles    
Events      
T = Trace of Precipitation, MM = Missing Value Source: Averaged Metar Reports

Daily Weather History Graph

Daily Weather History Graph

Search for Another Location

Airport:

Trip Planner

Search our weather history database for the weather conditions in past years. The results will help you decide how hot, cold, wet, or windy it might be!

Date:

Astronomy

Feb. 18, 2013 Rise Set
Actual Time 6:33 AM ICT 6:12 PM ICT
Civil Twilight 6:11 AM ICT 6:34 PM ICT
Nautical Twilight 5:45 AM ICT 6:59 PM ICT
Astronomical Twilight 5:20 AM ICT 7:25 PM ICT
Moon 11:58 AM ICT (2/18) 12:22 AM ICT (2/18)
Length of Visible Light 12h 23m
Length of Day
11h 39m
First Quarter, 53% of the Moon is Illuminated
Feb 18
First Quarter
Feb 26
Full
Mar 5
Last Quarter
Mar 12
New
Mar 20
First Quarter

Hourly Weather History & Observations

Time (ICT) Temp. Heat Index Dew Point Humidity Pressure Visibility Wind Dir Wind Speed Gust Speed Precip Events Conditions
1:00 AM 78 °F - 65 °F 55% 29.78 in 6 mi Calm Calm - -   Clear
4:00 AM 73.4 °F - 68.0 °F 83% 29.77 in - Variable 2.3 mph - N/A   Clear
6:00 AM 73.4 °F - 68.0 °F 83% 29.80 in 5.0 mi NW 2.3 mph - N/A   Partly Cloudy
7:00 AM 73 °F - 65 °F 70% 29.81 in 5 mi Calm Calm - -   Mist
7:00 AM 73.4 °F - 68.0 °F 83% 29.83 in 4.3 mi Calm Calm - N/A   Partly Cloudy
8:00 AM 78.8 °F - 68.0 °F 69% 29.83 in 4.3 mi NE 3.5 mph - N/A   Unknown
9:00 AM 84.2 °F 88.4 °F 69.8 °F 62% 29.86 in 4.3 mi Variable 2.3 mph - N/A   Unknown
10:00 AM 87.8 °F 92.6 °F 69.8 °F 55% 29.86 in 4.3 mi Variable 4.6 mph - N/A   Unknown
11:00 AM 91.4 °F 96.8 °F 69.8 °F 49% 29.83 in 5.0 mi SE 5.8 mph - N/A   Unknown
12:00 PM 93.2 °F 94.9 °F 64.4 °F 38% 29.80 in 5.0 mi SSE 6.9 mph - N/A   Partly Cloudy
1:00 PM 95 °F - 62 °F 24% 29.74 in 6 mi ESE 3.5 mph - -   Haze
1:00 PM 96.8 °F 100.7 °F 66.2 °F 37% 29.77 in 5.6 mi Variable 5.8 mph - N/A   Partly Cloudy
2:00 PM 96.8 °F 100.7 °F 66.2 °F 37% 29.74 in 5.6 mi East 5.8 mph - N/A   Mostly Cloudy
3:00 PM 98.6 °F 102.8 °F 66.2 °F 35% 29.71 in 5.6 mi Variable 2.3 mph - N/A   Mostly Cloudy
4:00 PM 96.8 °F 100.7 °F 66.2 °F 37% 29.68 in 5.6 mi South 5.8 mph - N/A   Scattered Clouds
5:00 PM 95.0 °F 97.0 °F 64.4 °F 36% 29.68 in 5.6 mi South 3.5 mph - N/A   Mostly Cloudy
6:00 PM 91.4 °F 94.0 °F 66.2 °F 43% 29.71 in 5.0 mi Variable 1.2 mph - N/A   Mostly Cloudy
7:00 PM 88 °F - 65 °F 36% 29.71 in 5 mi SSE 2.3 mph - -   Haze
7:00 PM 87.8 °F 91.4 °F 68.0 °F 52% 29.74 in 5.0 mi Variable 2.3 mph - N/A   Unknown
8:00 PM 86.0 °F 89.4 °F 68.0 °F 55% 29.77 in 5.0 mi SSE 2.3 mph - N/A   Unknown